Content
SEND FEEDBACK

Daily
Averages
Monthly
Summary
United States of America

TAMUNING, GUAM


Home > North America > United States > Guam
Elevation: 76 meters     Latitude: 13 29N     Longitude: 144 47E

WEATHER
 
SELECT A DAY
Number of Records: 352,394;   Date Range: 1/1/95 - 10/29/14
 
SHARE

PRINT THIS DATA

[ ← Previous Day ]
WEATHER ALMANAC - 23 APRIL, 2013
[ Next Day → ]
[ °F ]   °C
Weather ElementAverageHighLow
Temperature26.9 °C29.8 °C (1:55 pm)25.7 °C (4:55 am)
Dewpoint22.9 °C25 °C (10:13 am)20.8 °C (9:55 pm)
Humidity79 %89 % (10:13 am)65 % (1:55 pm)
Barometer1012.9 hPa1014.2 hPa (7:55 am)1010.5 hPa (3:55 pm)
Wind Speed22.4 km/h31.5 km/h (10:24 am)
Wind Gust42.6 km/h (2:55 pm)
Weather ElementAverage
Visibility15.8 km
Wind DirectionENE (74.7 °)

Weather ElementTotal
Precipitation---
Cooling Degree Days9.4 (Base 18.3)
Growing Degree Days17.8 (Base 10)
Averaged from 58 records on 23 April, 2013
WEATHER CONDITIONS BREAKOUT
WIND DIRECTION BREAKOUT
WEATHER BY HOUR - 23 APRIL, 2013
[ °F ]   °C
Local TimeTemperatureDewpointHumidityBarometerVisibilityWind DirectionWind SpeedGust SpeedPrecipitationEventsConditions
1:55 AM26.1 °C22.4 °C80 %1012.9 hPa16.1 kmEast (90°)16.7 km/hPartly Cloudy
2:26 AM26 °C23 °C83 %1012.9 hPa16.1 kmEast (90°)16.7 km/hMostly Cloudy
2:28 AM26 °C23 °C83 %1012.9 hPa16.1 kmEast (90°)18.5 km/hScattered Clouds
2:55 AM25.9 °C23.1 °C84 %1012.5 hPa16.1 kmEast (90°)16.7 km/hScattered Clouds
2:58 AM26 °C23 °C83 %1012.5 hPa16.1 kmEast (90°)18.5 km/hMostly Cloudy
3:26 AM26 °C23 °C83 %1012.2 hPa16.1 kmEast (90°)18.5 km/hScattered Clouds
3:55 AM25.8 °C22.8 °C83 %1012.2 hPa16.1 kmEast (80°)16.7 km/hPartly Cloudy
4:55 AM25.7 °C23 °C85 %1012.5 hPa16.1 kmEast (80°)13 km/hScattered Clouds
5:40 AM26 °C23 °C83 %1012.9 hPa16.1 kmEast (80°)18.5 km/hMostly Cloudy
5:45 AM26 °C23 °C83 %1012.9 hPa16.1 kmENE (70°)18.5 km/hScattered Clouds
5:55 AM25.7 °C23 °C85 %1012.9 hPa16.1 kmEast (80°)18.5 km/hScattered Clouds
6:10 AM26 °C23 °C83 %1012.9 hPa16.1 kmEast (80°)20.4 km/hMostly Cloudy
6:12 AM26 °C23 °C83 %1012.9 hPa16.1 kmEast (80°)20.4 km/hScattered Clouds
6:14 AM26 °C23 °C83 %1013.2 hPa16.1 kmENE (70°)16.7 km/hMostly Cloudy
6:26 AM26 °C23 °C83 %1013.2 hPa16.1 kmENE (70°)20.4 km/hScattered Clouds
6:36 AM26 °C23 °C83 %1013.2 hPa16.1 kmENE (70°)16.7 km/hMostly Cloudy
6:48 AM26 °C23 °C83 %1013.2 hPa16.1 kmENE (70°)20.4 km/hScattered Clouds
6:49 AM26 °C23 °C83 %1013.2 hPa16.1 kmENE (70°)18.5 km/hMostly Cloudy
6:52 AM26 °C23 °C83 %1013.2 hPa16.1 kmEast (80°)16.7 km/hScattered Clouds
6:55 AM26.4 °C23.1 °C82 %1013.5 hPa16.1 kmENE (70°)22.2 km/hMostly Cloudy
6:57 AM26 °C23 °C83 %1013.5 hPa16.1 kmENE (70°)24.1 km/hScattered Clouds
7:06 AM27 °C23 °C79 %1013.5 hPa16.1 kmEast (80°)22.2 km/hMostly Cloudy
7:18 AM27 °C23 °C79 %1013.9 hPa16.1 kmEast (80°)20.4 km/hScattered Clouds
7:22 AM27 °C23 °C79 %1013.9 hPa16.1 kmENE (70°)24.1 km/hMostly Cloudy
7:30 AM27 °C23 °C79 %1013.9 hPa16.1 kmEast (80°)20.4 km/hScattered Clouds
7:55 AM27.2 °C23.2 °C79 %1014.2 hPa16.1 kmENE (70°)24.1 km/hScattered Clouds
8:55 AM28.3 °C23.9 °C77 %1014.2 hPa16.1 kmENE (70°)22.2 km/hClear
9:55 AM28.5 °C24.1 °C77 %1013.9 hPa16.1 kmENE (70°)24.1 km/hScattered Clouds
9:59 AM28 °C24 °C79 %1013.9 hPa16.1 kmENE (70°)24.1 km/hMostly Cloudy
10:02 AM28 °C24 °C79 %1013.9 hPa8 kmEast (90°)25.9 km/hRainLight Rain
10:13 AM27 °C25 °C89 %1013.9 hPa9.7 kmENE (70°)29.6 km/hRainLight Rain
10:15 AM27 °C25 °C89 %1013.9 hPa14.5 kmENE (70°)29.6 km/hMostly Cloudy
10:20 AM27 °C24 °C84 %1013.9 hPa16.1 kmEast (80°)25.9 km/hMostly Cloudy
10:21 AM27 °C24 °C84 %1013.9 hPa16.1 kmENE (70°)24.1 km/hMostly Cloudy
10:24 AM27 °C24 °C84 %1013.9 hPa16.1 kmENE (70°)31.5 km/h37 km/hOvercast
11:55 AM29.4 °C22.6 °C67 %1013.2 hPa16.1 kmEast (80°)27.8 km/hPartly Cloudy
12:55 PM29.7 °C22.9 °C67 %1012.2 hPa16.1 kmEast (90°)31.5 km/hMostly Cloudy
1:55 PM29.8 °C22.5 °C65 %1011.5 hPa16.1 kmEast (90°)25.9 km/h37 km/hPartly Cloudy
2:55 PM29.4 °C22.5 °C66 %1010.8 hPa16.1 kmENE (70°)27.8 km/h42.6 km/hPartly Cloudy
3:55 PM29.2 °C22.5 °C67 %1010.5 hPa16.1 kmEast (80°)24.1 km/hClear
4:55 PM28.3 °C22.4 °C70 %1010.5 hPa16.1 kmENE (70°)25.9 km/hClear
5:25 PM28 °C22 °C70 %1010.5 hPa16.1 kmEast (80°)27.8 km/hMostly Cloudy
5:31 PM28 °C22 °C70 %1010.8 hPa16.1 kmEast (80°)24.1 km/hMostly Cloudy
5:34 PM28 °C23 °C74 %1010.8 hPa16.1 kmEast (80°)22.2 km/hMostly Cloudy
5:36 PM28 °C23 °C74 %1010.8 hPa16.1 kmENE (70°)24.1 km/hScattered Clouds
5:55 PM27.3 °C22.6 °C75 %1011.2 hPa16.1 kmENE (70°)20.4 km/hScattered Clouds
6:55 PM26.4 °C22.8 °C80 %1011.9 hPa16.1 kmENE (70°)20.4 km/hPartly Cloudy
7:27 PM27 °C23 °C79 %1011.9 hPa16.1 kmENE (60°)22.2 km/hMostly Cloudy
7:49 PM27 °C23 °C79 %1012.5 hPa16.1 kmENE (60°)25.9 km/hMostly Cloudy
7:51 PM27 °C23 °C79 %1012.5 hPa16.1 kmENE (60°)27.8 km/hMostly Cloudy
7:53 PM27 °C23 °C79 %1012.5 hPa16.1 kmENE (60°)25.9 km/hMostly Cloudy
7:55 PM26.5 °C22.7 °C80 %1012.5 hPa16.1 kmENE (70°)24.1 km/hScattered Clouds
8:55 PM26.1 °C21.9 °C78 %1013.5 hPa16.1 kmENE (60°)25.9 km/hPartly Cloudy
9:55 PM25.9 °C20.8 °C73 %1014.2 hPa16.1 kmENE (70°)22.2 km/hClear
10:55 PM26 °C22.2 °C79 %1014.2 hPa16.1 kmENE (60°)16.7 km/hPartly Cloudy
11:03 PM26 °C22 °C78 %1014.2 hPa16.1 kmENE (70°)22.2 km/hMostly Cloudy
11:27 PM26 °C22 °C78 %1014.2 hPa16.1 kmENE (60°)24.1 km/hScattered Clouds
11:55 PM25.8 °C21.3 °C76 %1013.9 hPa16.1 kmENE (70°)25.9 km/hClear
Hourly data recorded from PGUA, located 0 kilometers away from Tamuning, Guam







STORIES FROM OUR PARTNERS